TimeEDT,TemperatureF,Dew PointF,Humidity,Sea Level PressureIn,VisibilityMPH,Wind Direction,Wind SpeedMPH,Gust SpeedMPH,PrecipitationIn,Events,Conditions,WindDirDegrees,DateUTC
12:15 AM,55.4,55.4,100,30.08,4.0,Calm,Calm,-,N/A,,Overcast,0,2012-10-10 04:15:00
12:35 AM,55.4,55.4,100,30.08,4.0,Calm,Calm,-,N/A,,Overcast,0,2012-10-10 04:35:00
12:55 AM,55.4,55.4,100,30.08,3.0,Calm,Calm,-,N/A,,Overcast,0,2012-10-10 04:55:00
1:15 AM,55.4,55.4,100,30.08,2.5,Calm,Calm,-,N/A,,Overcast,0,2012-10-10 05:15:00
1:55 AM,55.4,55.4,100,30.08,3.0,WSW,3.5,-,N/A,,Overcast,250,2012-10-10 05:55:00
2:15 AM,55.4,55.4,100,30.08,3.0,WSW,4.6,-,N/A,,Overcast,250,2012-10-10 06:15:00
2:35 AM,55.4,55.4,100,30.07,3.0,West,5.8,-,N/A,,Overcast,260,2012-10-10 06:35:00
2:55 AM,55.4,55.4,100,30.07,2.5,West,3.5,-,N/A,,Overcast,260,2012-10-10 06:55:00
3:15 AM,55.4,55.4,100,30.06,2.5,Calm,Calm,-,N/A,,Overcast,0,2012-10-10 07:15:00
3:35 AM,55.4,55.4,100,30.06,4.0,Calm,Calm,-,N/A,,Overcast,0,2012-10-10 07:35:00
3:55 AM,55.4,55.4,100,30.05,4.0,Calm,Calm,-,N/A,,Overcast,0,2012-10-10 07:55:00
4:15 AM,55.4,55.4,100,30.05,2.5,WSW,3.5,-,N/A,,Overcast,250,2012-10-10 08:15:00
4:35 AM,55.4,55.4,100,30.05,3.0,West,3.5,-,N/A,,Overcast,270,2012-10-10 08:35:00
4:55 AM,55.4,55.4,100,30.05,4.0,West,4.6,-,N/A,,Overcast,260,2012-10-10 08:55:00
5:15 AM,55.4,53.6,94,30.05,7.0,West,3.5,-,N/A,,Overcast,270,2012-10-10 09:15:00
5:35 AM,55.4,53.6,94,30.06,7.0,Calm,Calm,-,N/A,,Overcast,0,2012-10-10 09:35:00
5:55 AM,55.4,53.6,94,30.06,7.0,WSW,3.5,-,N/A,,Overcast,250,2012-10-10 09:55:00
6:15 AM,55.4,53.6,94,30.06,7.0,West,4.6,-,N/A,,Overcast,260,2012-10-10 10:15:00
6:35 AM,55.4,53.6,94,30.06,5.0,WSW,3.5,-,N/A,,Mostly Cloudy,250,2012-10-10 10:35:00
6:55 AM,53.6,53.6,100,30.07,5.0,Calm,Calm,-,N/A,,Mostly Cloudy,0,2012-10-10 10:55:00
6:56 AM,55.4,53.6,94,30.07,3.0,Calm,Calm,-,N/A,,Mostly Cloudy,0,2012-10-10 10:56:00
7:56 AM,55.4,55.4,100,30.08,2.0,Calm,Calm,-,N/A,,Overcast,0,2012-10-10 11:56:00
8:56 AM,57.2,55.4,94,30.09,5.0,WSW,6.9,-,N/A,,Overcast,250,2012-10-10 12:56:00
9:56 AM,60.8,55.4,82,30.09,7.0,WNW,5.8,-,N/A,,Mostly Cloudy,290,2012-10-10 13:56:00
10:56 AM,62.6,51.8,68,30.09,7.0,WNW,8.1,-,N/A,,Mostly Cloudy,300,2012-10-10 14:56:00
11:56 AM,64.4,51.8,64,30.08,7.0,WNW,8.1,-,N/A,,Mostly Cloudy,290,2012-10-10 15:56:00
12:56 PM,66.2,51.8,60,30.04,7.0,West,5.8,-,N/A,,Clear,260,2012-10-10 16:56:00
1:56 PM,68.0,51.8,56,30.01,7.0,West,6.9,-,N/A,,Clear,270,2012-10-10 17:56:00
2:56 PM,69.8,50.0,49,29.99,10.0,WNW,10.4,-,N/A,,Clear,290,2012-10-10 18:56:00
3:56 PM,71.6,50.0,46,29.90,10.0,West,6.9,-,N/A,,Clear,280,2012-10-10 19:56:00
4:56 PM,69.8,50.0,49,29.98,10.0,West,4.6,-,N/A,,Clear,270,2012-10-10 20:56:00
5:56 PM,68.0,51.8,56,30.00,10.0,West,4.6,-,N/A,,Clear,270,2012-10-10 21:56:00
6:56 PM,62.6,53.6,72,30.01,10.0,WSW,3.5,-,N/A,,Clear,250,2012-10-10 22:56:00
7:56 PM,55.4,53.6,94,30.03,10.0,SW,3.5,-,N/A,,Clear,230,2012-10-10 23:56:00
8:56 PM,55.4,53.6,94,30.06,10.0,WSW,3.5,-,N/A,,Clear,240,2012-10-11 00:56:00
9:15 PM,55.4,53.6,94,30.06,10.0,SW,3.5,-,N/A,,Scattered Clouds,220,2012-10-11 01:15:00
9:35 PM,55.4,53.6,94,30.07,10.0,WSW,3.5,-,N/A,,Scattered Clouds,240,2012-10-11 01:35:00
9:55 PM,55.4,51.8,88,30.08,10.0,SW,3.5,-,N/A,,Clear,230,2012-10-11 01:55:00
10:15 PM,55.4,53.6,94,30.08,10.0,WSW,4.6,-,N/A,,Clear,240,2012-10-11 02:15:00
10:35 PM,55.4,51.8,88,30.09,10.0,WSW,4.6,-,N/A,,Clear,240,2012-10-11 02:35:00
10:55 PM,53.6,51.8,94,30.09,10.0,WSW,4.6,-,N/A,,Clear,240,2012-10-11 02:55:00
11:15 PM,53.6,51.8,94,30.09,10.0,WSW,4.6,-,N/A,,Clear,240,2012-10-11 03:15:00
11:35 PM,55.4,51.8,88,30.10,10.0,WSW,4.6,-,N/A,,Clear,240,2012-10-11 03:35:00
11:55 PM,55.4,51.8,88,30.10,10.0,Calm,Calm,-,N/A,,Clear,0,2012-10-11 03:55:00